Portada
METAR-TAF:

METAR-TAF

Aeroports :

Abadeh, Iran

latitud: 31-11N, longitud: 052-40E, altitud: 2004 m

Observació

L'informe es va fer fa 10 hores i 48 minuts, a les 17:00 UTC
Vent 16 kt del Nord
Temperatura 1°C
Humitat 86%
Pressió 1017 hPa
Visibilitat 10 km o més
Escasses núvols a una alçada de 4000 ft
Cel ennuvolat a una alçada de 20000 ft

METAR: OISA 201700Z 36016KT 9999 FEW040 BKN200 01/M01 Q1016 A3002

Hora: 07:18 (03:48 UTC)


TAF: manca

Observacions i pronòstics meteorològics de més de 4000 aeroports (METAR i TAF).

Les estacions disponibles són els punts grocs i vermells al mapa.

Posi el ratolí al punt desitjat per veure el nom de l'estació.

Feu clic per veure les observacions i els pronòstics meteorològics.

Per canviar el mapa: feu clic els botons verds amb una creu de color negre per apropar; al botó verd amb un guió per allunyar la imatge; o en les fletxes verdes per a mapes adjacents.


METAR-TAF: